Location: Unspecified
(0.0000°N, 0.0000°E)
Time: 20:38:11
(UTC+00:00)

ARIANE 1 DEB - Pass Details

Date: 23 February 2026
Orbit: 376 x 19604 km, 19.8° (Epoch: 20 January)

Event Time Altitude Azimuth Distance (km) Brightness Sun altitude
Rises 18:31:11 0° 290° (WNW) 25,109 ? -4.4°
Reaches altitude 10° 19:56:47 10° 290° (WNW) 18,294 ? -25.5°
Maximum altitude 21:01:44 72° 207° (SSW) 2,453 ? -41.4°
Enters shadow 21:03:03 67° 169° (S) 2,238 ? -41.7°
